WA0SOP Weather Reports


Display with metric or nautical units.
time (UTC)temp
F
wind
direction
speed
MPH
gust
MPH
rain 1hr
in
rain 24hr
in
rain mn
in
humidity
%
barometer
mb
20210116083124 19 308 2.0 8.0 0.00 0.00 0.00 69 1017.0
20210116081523 19 281 2.0 7.0 0.00 0.00 0.00 70 1017.6
20210116074651 19 284 5.0 7.0 0.00 0.00 0.00 69 1017.5
20210116073108 19 279 3.0 9.0 0.00 0.00 0.00 69 1017.3
20210116071529 19 287 3.0 5.0 0.00 0.00 0.00 70 1017.4
20210116063038 18 293 2.0 4.0 0.00 0.00 0.00 69 1017.6
20210116060053 21 298 2.0 5.0 0.00 0.00 0.00 68 1017.8
20210116054635 21 302 3.0 7.0 0.00 0.00 0.00 68 1017.8
20210116051609 21 319 5.0 8.0 0.00 0.00 0.00 66 1018.0
20210116050021 23 309 4.0 15.0 0.00 0.00 0.00 65 1018.4
20210116044636 23 302 5.0 12.0 0.00 0.00 0.00 65 1018.2
20210116043028 24 314 6.0 10.0 0.00 0.00 0.00 65 1018.4
20210116041806 25 299 3.0 9.0 0.00 0.00 0.00 64 1018.3
20210116034621 25 330 9.0 16.0 0.00 0.00 0.00 63 1018.3
20210116033019 26 304 6.0 13.0 0.00 0.00 0.00 64 1018.6
20210116031546 26 321 5.0 12.0 0.00 0.00 0.00 64 1018.5
20210116024716 26 311 7.0 12.0 0.00 0.00 0.00 64 1018.4
20210116023046 26 316 7.0 13.0 0.00 0.00 0.00 63 1018.4
20210116021648 26 316 8.0 15.0 0.00 0.00 0.00 64 1018.5
20210116020152 26 311 6.0 18.0 0.00 0.00 0.00 64 1018.9
20210116014539 26 323 10.0 20.0 0.00 0.00 0.00 63 1018.7
20210116013029 26 319 9.0 17.0 0.00 0.00 0.00 63 1018.8
20210116011514 26 317 9.0 18.0 0.00 0.00 0.00 63 1018.8
20210116010128 26 315 11.0 19.0 0.00 0.00 0.00 63 1018.7
20210116004653 26 315 9.0 19.0 0.00 0.00 0.00 63 1018.6
20210116003108 26 315 12.0 19.0 0.00 0.00 0.00 63 1018.3
20210116001541 26 315 9.0 17.0 0.00 0.00 0.00 63 1018.4
20210116000007 26 300 11.0 18.0 0.00 0.00 0.00 63 1018.5
20210115234818 26 306 10.0 26.0 0.00 0.00 0.00 63 1018.2
20210115233106 26 323 13.0 23.0 0.00 0.00 0.00 63 1018.1
20210115231518 26 329 11.0 20.0 0.00 0.00 0.00 63 1018.1
20210115230039 26 329 8.0 21.0 0.00 0.00 0.00 64 1018.1
20210115224607 26 322 10.0 23.0 0.00 0.00 0.00 64 1018.0
20210115223040 26 325 11.0 22.0 0.00 0.00 0.00 63 1017.7
20210115220119 27 304 10.0 18.0 0.00 0.00 0.00 64 1017.1
20210115214540 27 342 11.0 22.0 0.00 0.00 0.00 64 1016.6
20210115213034 27 306 12.0 19.0 0.00 0.00 0.00 65 1016.3
20210115211544 27 315 12.0 22.0 0.00 0.00 0.00 65 1016.2
20210115210058 27 306 13.0 22.0 0.00 0.00 0.00 67 1015.9
20210115204548 27 324 12.0 24.0 0.00 0.00 0.00 67 1015.7
20210115203021 26 346 13.0 24.0 0.00 0.00 0.00 66 1015.7
20210115201632 26 302 12.0 23.0 0.00 0.00 0.00 66 1015.4
20210115194635 26 314 17.0 30.0 0.00 0.00 0.00 64 1015.1
20210115193113 26 321 16.0 32.0 0.00 0.00 0.00 65 1015.4
20210115191558 26 300 16.0 33.0 0.00 0.00 0.00 66 1015.0
20210115190214 26 340 13.0 28.0 0.00 0.00 0.00 64 1014.6
20210115184733 26 289 13.0 29.0 0.00 0.00 0.00 62 1014.7
20210115183104 26 320 17.0 30.0 0.00 0.00 0.00 62 1014.9
20210115181613 26 304 18.0 41.0 0.00 0.00 0.00 61 1014.8
20210115180032 26 327 18.0 31.0 0.00 0.00 0.00 61 1014.6
20210115174620 26 305 15.0 28.0 0.00 0.00 0.00 61 1014.5
20210115173038 26 337 15.0 29.0 0.00 0.00 0.00 61 1014.5
20210115170428 26 319 17.0 27.0 0.00 0.00 0.00 62 1014.4
20210115164714 26 317 17.0 30.0 0.00 0.00 0.00 62 1014.3
20210115163053 27 321 14.0 31.0 0.00 0.00 0.00 62 1014.0
20210115161537 27 320 18.0 30.0 0.00 0.00 0.00 61 1013.4
20210115160209 27 309 22.0 32.0 0.00 0.00 0.00 59 1013.0
20210115153056 27 319 18.0 34.0 0.00 0.00 0.00 59 1012.6
20210115151607 27 306 16.0 33.0 0.00 0.00 0.00 59 1012.2
20210115150101 27 311 19.0 33.0 0.00 0.00 0.00 60 1012.0
20210115144548 27 311 19.0 37.0 0.00 0.00 0.00 60 1012.0
20210115141610 27 315 18.0 30.0 0.00 0.00 0.00 60 1011.5
20210115140052 27 340 18.0 32.0 0.00 0.00 0.00 61 1011.3
20210115134515 27 290 19.0 31.0 0.00 0.00 0.00 62 1011.0
20210115133030 27 321 18.0 43.0 0.00 0.00 0.00 60 1010.8
20210115130235 27 333 18.0 34.0 0.00 0.00 0.00 60 1010.5
20210115124520 27 317 20.0 36.0 0.00 0.00 0.00 60 1010.4
20210115123029 27 331 18.0 33.0 0.00 0.00 0.00 61 1010.2
20210115121529 27 294 15.0 28.0 0.00 0.00 0.00 63 1010.1
20210115120145 28 336 19.0 35.0 0.00 0.00 0.00 61 1010.0
20210115114732 28 311 16.0 26.0 0.00 0.00 0.00 61 1009.7
20210115113248 28 323 15.0 30.0 0.00 0.00 0.00 61 1009.7
20210115111600 28 346 18.0 31.0 0.00 0.00 0.00 59 1009.7
20210115110211 29 315 18.0 32.0 0.00 0.00 0.00 57 1009.6
20210115104657 29 287 18.0 27.0 0.00 0.00 0.00 57 1009.5
20210115103239 29 307 16.0 34.0 0.00 0.00 0.00 57 1009.2
20210115101710 29 300 18.0 34.0 0.00 0.00 0.00 56 1009.4
20210115100129 29 300 19.0 29.0 0.00 0.00 0.00 55 1009.5
20210115094609 29 309 17.0 29.0 0.00 0.00 0.00 55 1009.4
20210115093151 29 331 14.0 27.0 0.00 0.00 0.00 55 1009.6
20210115091601 29 315 19.0 29.0 0.00 0.00 0.00 55 1009.6
20210115090219 29 321 17.0 27.0 0.00 0.00 0.00 55 1009.7